Location: Vancouver
(49.2500°N, 123.1330°W)
Time: 17:04:16
(UTC-08:00)

SO-67 - Visible Passes

Search period start: 21 February 2018 00:00
Search period end: 03 March 2018 00:00
Orbit: 396 x 398 km, 97.1° (Epoch: 21 February)

Date Brightness Start Highest point End Pass type
(mag) Time Alt. Az. Time Alt. Az. Time Alt. Az.
21 Feb ? 06:36:59 10° NE 06:39:19 19° E 06:41:38 10° SE visible
21 Feb ? 18:35:39 10° S 18:38:41 54° W 18:41:45 10° NNW visible
22 Feb ? 19:17:31 10° SW 19:19:35 16° W 19:21:40 10° NW visible
23 Feb ? 06:27:05 10° NE 06:28:57 15° E 06:30:48 10° SE visible
23 Feb ? 18:25:17 10° S 18:28:23 77° W 18:31:30 10° NNW visible
24 Feb ? 19:06:44 10° SSW 19:09:11 22° W 19:11:41 10° NW visible
25 Feb ? 06:17:31 10° ENE 06:18:31 11° E 06:19:31 10° ESE visible
26 Feb ? 18:56:01 10° SSW 18:58:45 29° W 19:01:31 10° NNW visible
28 Feb ? 18:45:22 10° S 18:48:18 39° W 18:51:15 10° NNW visible
01 Mar ? 19:27:40 10° WSW 19:29:10 13° W 19:30:41 10° WNW visible
02 Mar ? 18:34:46 10° S 18:37:48 56° W 18:40:52 10° NNW visible
